Location: Glen Head
(40.8354°N, 73.6237°W)
Time: 05:35:14
(UTC+00:00)

Daily predictions for brighter satellites

Satellite Brightness Start Highest point End
(mag) Time Altitude Azimuth Time Altitude Azimuth Time Altitude Azimuth
PSLV R/B 2.7 00:05:23 10° WSW 00:08:02 62° SSE 00:08:35 47° ESE
Cosmos 2084 Rocket 3.4 00:05:15 10° SSW 00:09:41 79° ESE 00:14:10 10° NE
Cosmos 2333 Rocket 3.2 00:04:38 10° NW 00:10:06 49° WSW 00:15:35 10° S
Cosmos 2237 Rocket 2.2 00:06:07 10° NNW 00:11:49 67° ENE 00:16:18 17° SE
H-2A R/B 2.6 00:13:27 26° ESE 00:15:18 34° ENE 00:19:49 10° N
Cosmos 389 Rocket 2.2 00:12:35 10° N 00:16:01 75° E 00:18:06 22° SSE
HJ-1C 3.8 00:13:02 10° S 00:16:23 65° W 00:19:45 10° NNW
Cosmos 1707 3.0 00:13:33 10° NNW 00:17:28 69° W 00:21:21 10° S
Cosmos 1544 Rocket 3.9 00:16:43 12° SSE 00:20:29 42° E 00:24:42 10° NNE
Cosmos 1190 Rocket 3.9 00:15:15 10° NNW 00:20:33 72° ENE 00:24:16 20° SSE
SAR-Lupe-2 3.6 00:16:59 10° N 00:20:34 79° WNW 00:24:07 10° SSW
Cosmos 1455 Rocket 3.1 00:16:25 10° S 00:20:42 53° E 00:25:03 10° NNE
Cosmos 1980 3.6 00:16:06 10° NNW 00:21:47 86° ENE 00:26:16 17° SSE
Cosmos 614 Rocket 4.0 00:26:11 10° NNW 00:31:25 85° WSW 00:35:08 19° SSE
Ariane Rocket 4.2 00:29:18 10° S 00:34:05 42° W 00:38:54 10° NNW
Cosmos 482 Debris 4.1 00:31:14 10° SW 00:36:33 77° SE 00:37:08 61° ENE
FREGAT/IRIS 3.8 00:38:11 29° SW 00:39:03 38° W 00:41:43 10° NNW
SJ-6B 2.8 00:38:44 40° SSE 00:40:11 87° ENE 00:44:17 10° NNW
Cosmos 2219 Rocket 4.2 00:38:50 10° NW 00:43:21 25° WSW 00:47:51 10° SSW
DELTA 2 R/B (1) 3.5 00:38:35 10° WSW 00:44:11 75° S 00:45:48 47° E
SL-16 R/B 2.5 00:38:44 10° NNW 00:44:13 47° ENE 00:45:10 43° E
Meteor 2-5 Rocket 3.7 00:42:37 10° N 00:48:30 79° E 00:51:29 31° SSE
Cosmos 2056 Rocket 4.4 00:43:24 10° SW 00:48:41 53° WNW 00:53:59 10° N
Cosmos 407 Rocket 4.1 00:44:22 10° NNW 00:49:21 54° WSW 00:52:56 19° S
Cosmos 1766 3.6 00:50:55 51° NNE 00:50:55 51° NNE 00:53:57 10° N
ISS -2.0 00:48:21 10° W 00:51:17 28° NNW 00:51:56 26° N
ERBS 4.0 00:49:08 10° NNW 00:51:09 26° N 00:51:09 26° N
Cosmos 1420 Rocket 3.9 00:47:07 10° SSW 00:52:23 75° ESE 00:57:42 10° NNE
Meteor 1-4 Rocket 3.4 00:49:12 10° NNW 00:52:35 45° W 00:53:20 38° SW
Meteor 1-22 Rocket 4.3 00:47:22 10° S 00:53:22 68° E 00:59:27 10° NNE
Resurs 1-3 3.8 00:56:05 54° NE 00:56:05 54° NE 00:59:51 10° N
Cosmos 2082 3.6 00:50:27 10° SSW 00:56:11 90° NE 01:01:56 10° NNE
GEOS 3 Rocket 3.8 00:57:38 40° S 00:59:22 63° WSW 01:04:27 10° NW
Lacrosse 5 rocket 2.8 01:00:01 10° W 01:03:19 31° NW 01:04:34 24° N
ARGOS 3.0 01:02:32 51° SSE 01:03:58 89° WSW 01:09:23 10° NNW
ADEOS Rocket 3.5 00:57:29 10° NNE 01:05:02 86° ESE 01:12:51 10° SSW
Cosmos 1140 Rocket 3.9 01:02:26 10° NNW 01:07:31 57° WSW 01:09:13 38° SSW
Resurs 01 Rocket 2.4 01:09:28 42° NNE 01:09:28 42° NNE 01:12:34 10° N
Cosmos 2227 Rocket 3.3 01:06:16 10° SW 01:11:38 44° WNW 01:17:03 10° NNE
Cosmos 1954 Rocket 4.1 01:07:12 10° NNW 01:12:24 71° WSW 01:13:09 60° SSW
SL-08 R/B 4.4 01:06:34 10° N 01:13:03 79° E 01:14:20 59° SSE
USA 186 4.2 01:15:55 21° WSW 01:16:24 22° W 01:19:09 10° NW
Cosmos 1437 Rocket 4.1 01:16:09 10° NNW 01:18:40 36° NW 01:18:40 36° NW
MetOp-A 4.0 01:20:11 80° NNE 01:20:11 80° NNE 01:25:19 10° NNW
Cosmos 2297 Rocket 3.7 01:16:56 10° WSW 01:22:04 35° WNW 01:27:14 10° N
CZ-2C R/B 3.1 01:24:10 79° N 01:24:10 79° N 01:29:22 10° NNW
SL-08 RB Rocket 4.3 01:27:32 57° NW 01:27:32 57° NW 01:31:27 10° NNW
Cosmos 2366 rocket 4.5 01:21:40 10° NNW 01:27:54 59° W 01:30:48 32° SSW
Cosmos 1821 Rocket 4.4 01:29:45 10° N 01:34:23 48° NNE 01:34:23 48° NNE
Cosmos 1452 Rocket 4.4 01:37:55 10° SW 01:42:58 47° WNW 01:48:02 10° N
H-2A R/B 3.7 01:54:05 26° WSW 01:54:45 26° W 01:58:58 10° NW
SL-16 R/B 4.1 02:23:30 10° NW 02:27:04 23° W 02:27:04 23° W
Cosmos 2369 Rocket 4.3 06:43:33 22° NE 06:43:33 22° NE 06:45:36 10° NE
Cosmos 2344 4.0 06:54:42 56° NE 06:54:42 56° NE 07:00:51 10° NE
ATLAS 3B R/B 3.7 06:57:25 39° NE 06:57:25 39° NE 07:01:27 10° NE
Lacrosse 5 4.3 07:04:48 18° NNE 07:04:48 18° NNE 07:07:56 10° ENE
Cosmos 1943 Rocket 3.8 07:17:15 29° NNE 07:17:15 29° NNE 07:19:51 10° NNE
CZ-2D R/B 4.4 07:09:22 10° N 07:10:39 17° N 07:10:39 17° N
CENTAUR R/B 3.0 07:34:40 55° NNE 07:34:40 55° NNE 07:40:07 10° NNE
BREEZE-M DEB (TANK) 4.1 07:41:11 43° E 07:41:11 43° E 07:48:04 10° ESE
ADEOS II 3.2 07:43:07 10° N 07:46:16 37° N 07:46:16 37° N
Cosmos 1656 Rocket 3.8 08:05:38 72° N 08:05:38 72° N 08:10:42 10° NNE
Timation 2 Rocket 4.3 08:00:24 10° NNW 08:06:21 58° ENE 08:12:12 10° SE
Cosmos 2195 Rocket 4.5 08:05:56 65° SSE 08:06:55 81° E 08:13:12 10° N
Resurs 1-4 Rocket 4.4 08:03:41 10° NNW 08:04:29 13° NNW 08:04:29 13° NNW
ARIANE 5 R/B 3.7 08:04:39 10° N 08:07:32 31° NNW 08:07:32 31° NNW
Cosmos 44 Rocket 4.0 08:13:58 46° SE 08:14:25 47° ESE 08:19:10 10° NE
BREEZE-M DEB (TANK) 4.3 08:14:14 41° NW 08:16:32 63° N 08:36:33 10° E
Cosmos 2369 Rocket 3.5 08:25:22 26° NW 08:25:22 26° NW 08:29:11 10° N
Cosmos 44 4.3 08:25:51 34° NNW 08:25:51 34° NNW 08:29:23 10° NNE
ADEOS 4.0 08:22:16 10° NNE 08:27:27 60° ESE 08:29:59 29° S
H-2A R/B 3.6 08:30:00 10° NNE 08:33:36 38° E 08:35:11 26° SSE
Cosmos 2084 Rocket 3.4 08:34:51 71° N 08:35:15 81° NE 08:39:35 10° SE
Cosmos 1092 Rocket 4.1 08:36:29 48° W 08:36:40 48° WNW 08:42:37 10° N
BREEZE-M DEB (TANK) 3.5 08:38:50 51° NW 08:39:07 52° NNW 08:42:01 10° NE
Iridium 4 Rocket 3.6 08:40:37 43° NNW 08:40:37 43° NNW 08:43:41 10° N
BREEZE-M DEB (TANK) 4.0 08:36:33 30° W 08:41:49 60° NNW 08:45:54 10° ENE
Cosmos 1812 2.8 08:43:20 64° N 08:43:20 64° N 08:46:41 10° N
Cosmos 773 Rocket 3.8 08:43:23 56° SW 08:44:21 72° WNW 08:49:31 10° NNE
ATLAS 3B R/B 3.6 08:44:41 27° WNW 08:46:04 29° NW 08:51:42 10° NNE
SL-24 DEB 4.4 08:47:18 53° WNW 08:47:18 53° WNW 08:51:36 10° NNW
Lacrosse 5 2.3 08:44:04 14° NW 08:48:23 59° NE 08:53:23 10° ESE
Cosmos 1862 Rocket 3.8 08:52:16 48° WNW 08:52:16 48° WNW 08:56:23 10° N
CZ-2C R/B 3.9 08:47:48 10° NNE 08:52:25 37° E 08:57:07 10° SSE
SL-4 R/B 3.0 08:54:18 28° SSE 08:54:18 28° SSE 08:56:16 10° SSE
Okean 1-7 3.9 08:51:23 10° SSE 08:55:38 50° E 08:59:54 10° NNE
PSLV R/B 3.8 08:54:05 10° S 08:58:13 79° WSW 09:02:20 10° NNW
Cosmos 1943 Rocket 4.1 08:58:47 13° NW 08:58:55 13° NW 09:01:36 10° NNW
Cosmos 2242 Rocket 3.6 08:57:54 44° SW 08:59:06 62° W 09:03:33 10° N
MSX 3.9 08:59:57 10° NNE 09:05:43 79° ESE 09:11:27 10° S
Cosmos 1666 3.3 09:03:47 10° N 09:07:31 58° E 09:11:14 10° SSE
Cosmos 1340 2.5 09:03:53 10° NNW 09:07:38 63° W 09:11:21 10° S
Cosmos 1315 Rocket 3.2 09:07:34 43° W 09:08:04 45° WNW 09:12:04 10° N
USA 81 4.3 09:07:01 31° SW 09:08:59 44° W 09:14:03 10° N
IDEFIX/ARIANE 42P 2.6 09:04:06 10° N 09:09:19 64° WNW 09:13:11 18° SSW
Meteor 1-27 Rocket 3.9 09:06:26 23° SW 09:09:59 54° WNW 09:15:39 10° N
Atlas Centaur 2 4.0 09:13:40 17° SW 09:15:13 19° SSW 09:20:04 10° SSE
Cosmos 1680 Rocket 4.2 09:11:12 10° S 09:16:20 56° ESE 09:21:28 10° NNE
ASTRO E2 4.3 09:16:05 19° SSW 09:16:39 20° S 09:19:35 10° SE
Cosmos 923 Rocket 4.2 09:12:33 10° SSW 09:17:52 78° ESE 09:23:13 10° NNE
COSMOS 2441 4.3 09:15:10 10° N 09:20:04 84° WNW 09:24:59 10° SSW
CZ-4B R/B 4.4 09:16:39 10° NNE 09:20:14 53° E 09:23:48 10° S
ATLAS CENTAUR R/B 4.0 09:19:12 10° N 09:22:34 21° NE 09:25:45 10° E
Cosmos 1553 Rocket 4.1 09:17:09 10° NNW 09:23:10 53° W 09:29:04 10° SSW
SeaSat 1 2.4 09:18:39 10° NNE 09:23:34 69° WNW 09:27:38 15° SW
Cosmos 1908 Rocket 3.6 09:20:07 10° NNW 09:24:20 52° W 09:28:32 10° S
CENTAUR R/B 4.2 09:21:51 14° WNW 09:25:17 20° NNW 09:30:27 10° NNE
PSLV R/B 4.2 09:21:44 10° N 09:25:44 36° WNW 09:27:42 23° WSW
Meteor 1-31 Rocket 3.1 09:22:38 10° NNE 09:26:32 69° ESE 09:30:22 10° S
BREEZE-M DEB (TANK) 3.7 09:18:58 10° WNW 09:26:34 56° NNE 09:29:28 10° E
ADEOS II 4.1 09:26:15 10° NW 09:27:11 10° WNW 09:27:11 10° WNW
Meteor 1-11 Rocket 4.2 09:24:29 10° NNW 09:29:28 34° W 09:34:23 10° SSW
Okean 2 Rocket 4.4 09:27:08 10° N 09:31:29 44° ENE 09:35:47 10° SSE
Meteor 2-13 Rocket 4.4 09:29:27 10° SSW 09:35:35 69° W 09:41:45 10° N
Okean 1 3.4 09:32:34 10° S 09:36:30 77° E 09:40:29 10° N
Cosmos 2315 Rocket 4.3 09:31:32 10° N 09:37:45 72° E 09:43:57 10° SSE
Shenzhou-11 Module 1.8 09:41:51 23° WSW 09:43:22 67° SSE 09:46:06 10° ENE
Cosmos 1346 Rocket 4.1 09:42:51 10° NW 09:45:59 21° W 09:49:06 10° SW
Cosmos 1975 3.7 09:42:50 10° N 09:46:52 56° E 09:50:52 10° SSE
Okean O Rocket 3.5 09:46:40 10° NNE 09:50:45 34° E 09:54:48 10° SSE
OAO 2 Rocket 3.9 09:47:32 14° WSW 09:51:23 43° S 09:56:02 10° ESE
Cosmos 1536 4.1 09:49:30 10° NW 09:52:24 20° W 09:55:17 10° SW
Cosmos 1484 Rocket 3.5 09:49:17 10° NNE 09:52:58 54° E 09:56:35 10° S
PAYLOAD A 4.2 09:49:02 10° N 09:53:30 43° WNW 09:57:54 10° SW
Okean 3 4.0 09:49:36 10° S 09:53:43 64° E 09:57:54 10° NNE
OAO 3 Rocket 4.2 09:50:35 11° SW 09:54:35 35° S 09:58:50 10° ESE
Iridium 2 4.4 09:51:06 10° N 09:54:54 60° E 09:58:40 10° SSE
Unknown 2.8 09:52:58 10° NW 09:55:49 72° NE 09:58:41 10° ESE
Cosmos 1300 Rocket 4.1 09:58:43 10° N 10:03:04 64° E 10:07:25 10° SSE
Cosmos 1697 Rocket 3.5 09:58:06 10° S 10:03:36 55° ESE 10:09:08 10° NNE
Helios 1A Rocket 3.5 10:00:09 10° NNE 10:04:13 63° ESE 10:08:16 10° S
BREEZE-M DEB (TANK) 2.9 10:01:45 10° SW 10:05:33 49° SSE 10:07:46 10° ENE
Cosmos 2227 Rocket 2.3 10:00:07 10° NNW 10:05:50 85° ENE 10:11:30 10° SSE
Unknown 3.9 10:02:43 10° NW 10:05:51 47° NE 10:08:57 10° ESE
Abrixas rocket 2.5 10:03:21 10° SW 10:06:20 58° SSE 10:09:19 10° ENE
Cosmos 1782 Rocket 4.3 10:03:32 10° NNW 10:07:25 31° W 10:11:19 10° SSW
SKYMED 2 3.8 10:03:48 10° SSE 10:08:08 80° ENE 10:12:30 10° N
Meteor 1-18 Rocket 4.3 10:03:06 10° SSW 10:08:38 61° WNW 10:14:18 10° N
H-2A R/B 4.0 10:06:34 10° NNW 10:08:47 15° WNW 10:11:01 10° W
Meteor 2-4 Rocket 4.3 10:03:56 10° S 10:09:11 59° E 10:14:27 10° NNE
Nadezhda 2 Rocket 4.5 10:04:29 10° S 10:10:35 83° W 10:16:46 10° N
Cosmos 2219 3.4 10:05:39 10° NNW 10:11:07 51° WSW 10:16:32 10° S
Meteor 2-9 Rocket 4.3 10:06:49 10° N 10:12:12 77° E 10:17:29 10° SSE
SJ-12 4.1 10:09:09 10° NNE 10:13:14 77° ESE 10:17:16 10° S
Cosmos 2297 Rocket 2.2 10:10:24 10° NNW 10:16:03 75° WSW 10:21:40 10° SSE
